Location: Most
(50.5133°N, 13.6207°E)
Time: 14:25:22
(UTC+02:00)

ISS - Pass Details

Date: 15 September 2017
Orbit: 402 x 407 km, 51.6° (Epoch: 21 September)

Event Time Altitude Azimuth Distance (km) Brightness Sun altitude
Exits shadow 03:46:49 24° 76° (ENE) 896 -1.5 -25.8°
Drops below altitude 10° 03:48:17 10° 81° (E) 1,472 -0.3 -25.6°
Sets 03:50:23 0° 83° (E) 2,334 0.9 -25.4°
